Погода в Акуре

Нигерия     7°14′53″N   5°10′45″E
темп.,
°C
ветер,
м/с
пор.,
м/с
влажн.,
%
обл.,
%
осадки,
мм/ч
давл.,
гПа
погр.,
м
28 июня, вт
вт2801:00+22зюз119999 0.0 101346
04:00+21юв0099100 0.0 101218
07:00+22зюз1299100 0.0 1014119
10:00+26зюз127747 0.1 1014732
13:00+30ююз115699 0.2 10121673
16:00+26ю24839 1.1 1011247
19:00+23юз119428 3.0 101326
22:00+22юз1598100 0.2 1014165
29 июня, ср
ср2901:00+21юз159997 0.2 1014198
04:00+21зсз13100100 0.0 1014176
07:00+22зсз1497100 0.1 1015378
10:00+24з3586100 0.1 1015629
13:00+29зюз236251 0.1 10121206
16:00+29зюз336484 0.0 10101146
19:00+24юз269067 0.2 1011178
22:00+22ююз279899 0.3 1013309
30 июня, чт
чт3001:00+22з1599100 0.4 1014235
04:00+21с3697100 9.4 1013235
07:00+21зюз1397100 11.2 1013101
10:00+21зюз1396100 0.1 1014160
13:00+24зсз1285100 0.1 1013314
16:00+26зюз2269100 0.0 1011875
19:00+22ююз259441 1.1 1012143
22:00+22юз1598100 0.8 1014217
1 июля, пт
пт101:00+21ююз149984 1.1 1014215
04:00+21ююз1399100 1.1 1013199
07:00+21ююв139974 3.3 1014186
10:00+24ю138570 0.4 1015584
13:00+26ююз2384100 2.9 1013783
16:00+25юз248752 4.4 1011697
19:00+22юз25989 7.9 1013171
22:00+21юз1499100 0.0 1015144
2 июля, сб
сб201:00+21зюз14100100 0.0 1015182
04:00+21з149985 0.0 1014229
07:00+21зюз129788 0.1 1016176
10:00+25юз138056 0.1 1017711
13:00+26ююз228597 3.8 1015630
16:00+26юз228462 3.5 1012619
19:00+22юз259788 9.4 1014176
22:00+22зюз269991 0.3 1016275